User: anonymous   Login
Location: ????????
(38.4362°N, 22.8767°E)
Time: 16:40:19
(UTC+00:00)
Language:

Cosmos 1603 - Orbit

View from above orbital plane
View from above orbital plane
View from above satellite
View from above satellite

Ground track
Ground track

The orbit data is extracted from the following two-line orbital elements,

1 15333U 84106A   24170.65379268  .00000394  00000-0  23035-3 0  9996
2 15333  71.0254 134.3643 0021573 271.0401  88.8249 14.14331542 49722
Epoch (UTC): 18 June 2024 15:41:27
Eccentricity: 0.0021573
inclination: 71.0254°
perigee height: 829 km
apogee height: 860 km
right ascension of ascending node: 134.3643°
argument of perigee: 271.0401°
revolutions per day: 14.14331542
mean anomaly at epoch: 88.8249°
orbit number at epoch: 4972

The dashed part of the orbit path shows where the satellite is in the earth's shadow,  

DLR